• In Germany
  • List of Countries
  • For 7 days
  • Water Temperature
  • Satellite Maps
  • Weather Map
  • Weather Widgets
  • user-avatar
    Login

    Hourly Weather Durres

    Today, 27 May, Sunday

    Time Temperature Precipitation Wind Pressure Humidity
    00:00 +21°C° 0 mm 3 mps 762 mmHg 71%
    01:00 +21°C° 0 mm 3 mps 762 mmHg 70%
    02:00 +20°C° 0 mm 3 mps 762 mmHg 70%
    03:00 +20°C° 0 mm 3 mps 762 mmHg 70%
    04:00 +20°C° 0 mm 3 mps 762 mmHg 70%
    05:00 +22°C° 0 mm 3 mps 762 mmHg 67%
    06:00 +24°C° 0 mm 3 mps 762 mmHg 64%
    07:00 +27°C° 0 mm 2 mps 761 mmHg 60%
    08:00 +29°C° 0 mm 2 mps 762 mmHg 53%
    09:00 +30°C° 0 mm 2 mps 762 mmHg 46%
    10:00 +32°C° 0 mm 2 mps 762 mmHg 38%
    11:00 +33°C° 0 mm 3 mps 762 mmHg 38%
    12:00 +34°C° 0 mm 3 mps 762 mmHg 37%
    13:00 +34°C° 0 mm 3 mps 761 mmHg 36%
    14:00 +34°C° 0 mm 4 mps 761 mmHg 39%
    15:00 +33°C° 0 mm 4 mps 761 mmHg 41%
    16:00 +33°C° 0 mm 5 mps 761 mmHg 44%
    17:00 +30°C° 0 mm 5 mps 761 mmHg 52%
    18:00 +28°C° 0 mm 4 mps 761 mmHg 60%
    19:00 +25°C° 0 mm 4 mps 761 mmHg 69%
    20:00 +25°C° 0 mm 3 mps 761 mmHg 69%
    21:00 +24°C° 0 mm 3 mps 761 mmHg 69%
    22:00 +24°C° 0 mm 2 mps 762 mmHg 69%
    23:00 +23°C° 0 mm 2 mps 762 mmHg 69%

    Tomorrow, 28 May, Monday

    Time Temperature Precipitation Wind Pressure Humidity
    00:00 +23°C° 0 mm 2 mps 762 mmHg 68%
    01:00 +23°C° 0 mm 2 mps 762 mmHg 68%
    02:00 +21°C° 0 mm 2 mps 761 mmHg 67%
    03:00 +22°C° 0 mm 1 mps 761 mmHg 67%
    04:00 +22°C° 0 mm 1 mps 761 mmHg 66%
    05:00 +23°C° 0 mm 1 mps 761 mmHg 64%
    06:00 +25°C° 0 mm 1 mps 761 mmHg 62%
    07:00 +27°C° 0 mm 1 mps 762 mmHg 60%
    08:00 +28°C° 0 mm 1 mps 762 mmHg 55%
    09:00 +30°C° 0 mm 1 mps 762 mmHg 49%
    10:00 +32°C° 0 mm 2 mps 762 mmHg 44%
    11:00 +32°C° 0 mm 2 mps 762 mmHg 44%
    12:00 +33°C° 0 mm 3 mps 761 mmHg 44%
    13:00 +33°C° 0 mm 4 mps 761 mmHg 44%
    14:00 +33°C° 0 mm 4 mps 761 mmHg 46%
    15:00 +32°C° 0 mm 4 mps 761 mmHg 48%
    16:00 +32°C° 0 mm 4 mps 760 mmHg 50%
    17:00 +29°C° 0 mm 3 mps 760 mmHg 57%
    18:00 +27°C° 0 mm 3 mps 760 mmHg 64%
    19:00 +25°C° 0 mm 3 mps 760 mmHg 71%
    20:00 +25°C° 0 mm 2 mps 761 mmHg 71%
    21:00 +24°C° 0 mm 2 mps 761 mmHg 71%
    22:00 +24°C° 0 mm 2 mps 761 mmHg 72%
    23:00 +23°C° 0 mm 2 mps 761 mmHg 72%

    Day after tomorrow, 29 May, Tuesday

    Time Temperature Precipitation Wind Pressure Humidity
    00:00 +23°C° 0 mm 1 mps 761 mmHg 71%
    01:00 +23°C° 0 mm 1 mps 761 mmHg 71%
    02:00 +22°C° 0 mm 1 mps 761 mmHg 71%
    03:00 +22°C° 0 mm 1 mps 760 mmHg 70%
    04:00 +21°C° 0 mm 2 mps 760 mmHg 70%
    05:00 +24°C° 0 mm 2 mps 760 mmHg 67%
    06:00 +25°C° 0 mm 2 mps 760 mmHg 64%
    07:00 +27°C° 0 mm 2 mps 760 mmHg 61%
    08:00 +28°C° 0 mm 1 mps 760 mmHg 56%
    09:00 +30°C° 0 mm 1 mps 760 mmHg 51%
    10:00 +32°C° 0 mm 1 mps 760 mmHg 46%
    11:00 +32°C° 0 mm 2 mps 760 mmHg 46%
    12:00 +33°C° 0 mm 3 mps 760 mmHg 47%
    13:00 +33°C° 0 mm 4 mps 760 mmHg 47%
    14:00 +31°C° 0 mm 3 mps 759 mmHg 49%
    15:00 +31°C° 0 mm 3 mps 759 mmHg 52%
    16:00 +30°C° 0 mm 3 mps 759 mmHg 54%
    17:00 +29°C° 0 mm 2 mps 759 mmHg 59%
    18:00 +27°C° 0 mm 2 mps 759 mmHg 64%
    19:00 +26°C° 0 mm 1 mps 759 mmHg 69%
    20:00 +25°C° 0 mm 1 mps 759 mmHg 70%
    21:00 +25°C° 0 mm 1 mps 759 mmHg 71%
    22:00 +24°C° 0 mm 1 mps 759 mmHg 71%
    23:00 +24°C° 0 mm 1 mps 759 mmHg 72%

    30 May, Wednesday

    Time Temperature Precipitation Wind Pressure Humidity
    00:00 +23°C° 0 mm 1 mps 759 mmHg 72%
    01:00 +23°C° 0 mm 1 mps 759 mmHg 72%
    02:00 +23°C° 0.1 mm 1 mps 758 mmHg 73%
    03:00 +22°C° 0.1 mm 1 mps 758 mmHg 74%
    04:00 +22°C° 0.1 mm 1 mps 758 mmHg 75%
    05:00 +24°C° 0 mm 1 mps 758 mmHg 71%
    06:00 +25°C° 0 mm 2 mps 758 mmHg 67%
    07:00 +27°C° 0 mm 2 mps 758 mmHg 64%
    08:00 +28°C° 0 mm 2 mps 758 mmHg 59%
    09:00 +29°C° 0 mm 2 mps 758 mmHg 55%
    10:00 +31°C° 0 mm 3 mps 758 mmHg 51%
    11:00 +31°C° 0.1 mm 3 mps 758 mmHg 53%
    12:00 +31°C° 0.1 mm 3 mps 758 mmHg 54%
    13:00 +32°C° 0.1 mm 4 mps 758 mmHg 56%
    14:00 +30°C° 0.1 mm 3 mps 758 mmHg 58%
    15:00 +30°C° 0.1 mm 3 mps 757 mmHg 60%
    16:00 +29°C° 0.1 mm 3 mps 757 mmHg 62%
    17:00 +28°C° 0 mm 3 mps 757 mmHg 68%
    18:00 +26°C° 0 mm 2 mps 757 mmHg 73%
    19:00 +25°C° 0 mm 2 mps 757 mmHg 78%
    20:00 +24°C° 0 mm 2 mps 758 mmHg 80%
    21:00 +23°C° 0 mm 2 mps 758 mmHg 82%
    22:00 +23°C° 0 mm 2 mps 758 mmHg 84%
    23:00 +21°C° 0 mm 2 mps 758 mmHg 84%

    31 May, Thursday

    Time Temperature Precipitation Wind Pressure Humidity
    00:00 +21°C° 0 mm 2 mps 758 mmHg 85%
    01:00 +22°C° 0 mm 1 mps 758 mmHg 86%
    02:00 +21°C° 0 mm 2 mps 757 mmHg 86%
    03:00 +20°C° 0 mm 2 mps 757 mmHg 86%
    04:00 +20°C° 0 mm 2 mps 757 mmHg 86%
    05:00 +23°C° 0 mm 2 mps 757 mmHg 78%
    06:00 +25°C° 0 mm 2 mps 757 mmHg 71%
    07:00 +26°C° 0 mm 2 mps 757 mmHg 63%
    08:00 +27°C° 0 mm 2 mps 757 mmHg 60%
    09:00 +29°C° 0 mm 2 mps 757 mmHg 56%
    10:00 +30°C° 0 mm 2 mps 757 mmHg 53%
    11:00 +30°C° 0 mm 3 mps 757 mmHg 53%
    12:00 +30°C° 0 mm 3 mps 757 mmHg 53%
    13:00 +30°C° 0 mm 3 mps 757 mmHg 53%
    14:00 +30°C° 0 mm 3 mps 757 mmHg 53%
    15:00 +30°C° 0 mm 2 mps 757 mmHg 54%
    16:00 +29°C° 0 mm 2 mps 757 mmHg 54%
    17:00 +27°C° 0 mm 2 mps 757 mmHg 60%
    18:00 +26°C° 0 mm 2 mps 757 mmHg 67%
    19:00 +24°C° 0 mm 1 mps 757 mmHg 73%
    20:00 +23°C° 0 mm 1 mps 757 mmHg 74%
    21:00 +23°C° 0 mm 1 mps 757 mmHg 75%
    22:00 +22°C° 0 mm 1 mps 757 mmHg 76%
    23:00 +21°C° 0 mm 1 mps 757 mmHg 76%

    1 June, Friday

    Time Temperature Precipitation Wind Pressure Humidity
    00:00 +21°C° 0 mm 1 mps 757 mmHg 76%
    01:00 +21°C° 0 mm 1 mps 757 mmHg 77%
    02:00 +20°C° 0 mm 1 mps 757 mmHg 77%
    03:00 +20°C° 0 mm 1 mps 757 mmHg 77%
    04:00 +20°C° 0 mm 1 mps 757 mmHg 78%
    05:00 +22°C° 0 mm 1 mps 757 mmHg 73%
    06:00 +23°C° 0 mm 1 mps 757 mmHg 69%
    07:00 +25°C° 0 mm 1 mps 757 mmHg 64%
    08:00 +26°C° 0 mm 1 mps 757 mmHg 61%
    09:00 +28°C° 0 mm 2 mps 757 mmHg 59%
    10:00 +29°C° 0 mm 2 mps 757 mmHg 56%
    11:00 +29°C° 0 mm 2 mps 756 mmHg 55%
    12:00 +30°C° 0 mm 3 mps 756 mmHg 54%
    13:00 +32°C° 0 mm 4 mps 756 mmHg 53%
    14:00 +30°C° 0 mm 4 mps 756 mmHg 55%
    15:00 +29°C° 0 mm 3 mps 756 mmHg 58%
    16:00 +29°C° 0 mm 3 mps 755 mmHg 60%
    17:00 +27°C° 0 mm 3 mps 756 mmHg 67%
    18:00 +25°C° 0 mm 2 mps 756 mmHg 74%
    19:00 +24°C° 0 mm 1 mps 756 mmHg 80%
    20:00 +23°C° 0 mm 1 mps 756 mmHg 80%
    21:00 +23°C° 0 mm 1 mps 756 mmHg 79%
    22:00 +22°C° 0 mm 1 mps 757 mmHg 79%
    23:00 +22°C° 0.2 mm 1 mps 756 mmHg 78%
    Show more